Retour au catalogue

OTTER SDM

ActifScienceSSO
NORAD 66678·PAYLOAD·🇺🇸 United States

Lancé Nov 28, 2025 depuis Vandenberg Space Force Base

Loading…

Prochains Passages (prochaines 24 heures)

TLE

FraisSource: Space-Track

Époque: Sep 13, 2026, 17:07 UTC

1 66678U 25276N   26256.71334559  .00004479  00000-0  20691-3 0  9998
2 66678  97.4139 328.7435 0006855  59.1431 301.0478 15.20682857 43865

Suivez OTTER SDM en temps réel avec AllMySat

Download on the App Store